STARLINK-3822, 52287

Orbit data source: Space-Track

STARLINK-3822, 52287 is a payload satellite owned by SpaceX/Seattle (US) in LEO that was launched on Thu, 21 Apr 2022 UTC via an FALCON 9 launch vehicle from the Air Force Eastern Test Range (AFETR). Payload-class satellites include a variety of spacecraft equipped with specific instruments for various scientific and technological missions. These include communications satellites like Starlink; space stations such as the ISS; scientific satellites like the Hubble; Earth observation satellites from companies like Planet Labs, Umbra, and HawkEye 360; GPS; miniature CubeSats for education and research; and military/defense satellites.

Loading next visibility...
Identifier
52287, 2022-041AC
Orbit
LEO
Country
Flag of USUS
Related business
Manufacturer
SpaceX/Seattle
Mission
Operational Commercial Communications
Bus & Motor
STARLINK, Unknown motor
Mass
297 kg wet, ~275 kg dry
Launch date (UTC)
2022-04-21 (4 years ago)
Launch vehicle
FALCON 9
Launch site
Air Force Eastern Test Range (AFETR)
Object type
Payload
Rocket body
Debris
Shape & HBR
Box + 1 Pan, 10.1 m
Radar Cross Section
11.087 m², Large (>1 m²)

Expand to show TLE details & history
Last TLE update: 14 hours ago

TLE from 14 hours ago
0 STARLINK-3822
1 52287U 22041AC  26236.53066845  .00000777  00000-0  36805-4 0  9996
2 52287  53.1610  67.0154 0001223  89.8995 270.2146 15.31707477239829
Epoch: 2026-08-24T12:44Z
TLE epoch observation values (Epoch: 2026-08-24T12:44:09.754Z)
Latitude
-0.00005°
Longitude
-96.83632°
Altitude
471.615 km
Speed
7.631 km/s
True Right ascension
04h 28m 03s
True Declination
0° 00' 00"
Sunlit
Object was in daylight at epoch
Visualization orbit readout
Latitude
Unknown
Longitude
Unknown
Altitude
Unknown
Speed
Unknown
Apparent Right ascension
Unknown
Apparent Declination
Unknown
Sunlit
N/A
Visualization observer readout
Local Sidereal Time
18:13:49
Azimuth
Unknown
Elevation
Unknown
Doppler factor
Unknown
Orbital elements
Apogee altitude
471.812 km
Perigee altitude
470.136 km
Semi-major axis
6,849.111 km
Eccentricity
0.00012
Inclination
53.161°
RAAN
67.0154°
Arg. of periapsis
89.8995°
True anomaly
270.20059°
Mean anomaly
270.2146°
Eccentric anomaly
270.20759°
Mean motion
3.82906 °/min
Orbital period
94.02 mins
BSTAR
0.000036805
Loading maneuver chart data...
Computing Atmospheric mass density...
Loading historical data...
Loading historical data...
Loading historical data...
Loading historical data...
Loading historical data...
Loading historical data...
Loading historical data...

Documentation

Showing up to 5 results
|